COSMOS 2597

导读 | 豆包AI

COSMOS 2597是独联体(CIS)于2026年2月5日发射的卫星,隶属于“宇宙”卫星系列。该系列卫星多承担军事侦察、技术试验等任务,延续了苏联/俄罗斯航天领域秘密载荷发射传统。此次发射是独联体在2026年开年的重要航天活动,卫星入轨后将由相关航天部门控制,执行预设任务,进一步充实独联体的在轨卫星组网规模,服务国防与航天技术发展。

基本信息
目录编号:
67674
目录名称:
COSMOS 2600
国际标识:
2026-023A
轨道中心:
EARTH
卫星名称:
COSMOS 2597
卫星全名:
COSMOS 2597
卫星状态:
在轨 (已飞行37 天)
发射日期:
2026-02-05 UTC
国别 :
俄罗斯(独联体) (CIS)
星等 :
--
轨道信息
数据来源 国际轨道数据
星历时间: 2026-03-14T06:46:58+0800
8小时前
查看轨道信息
半长轴: 6698.761km
偏心率: 0.000177
轨道倾角: 96.643°
近地点辐角 66.112°
升交点赤经 148.459°
平近点角 294.034°
近地点: 319.438km
远地点: 321.81km
周期: 90.939分钟
每日圈数: 15.834747
详细信息
使用方式:
暂无
2D轨道图
3D轨道图
轨道高度分析图
轨道倾角分析图
轨道综合分析图
查看轨道综合分析图